User: anonymous   Login
Location: Newark
(51.2625°N, 13.3939°E)
Time: 06:13:40
(UTC+00:00)
Language:

Vanguard 2 - Orbit

View from above orbital plane
View from above orbital plane
View from above satellite
View from above satellite

Ground track
Ground track

The orbit data is extracted from the following two-line orbital elements,

1    11U 59001A   19321.48869237  .00000145  00000-0  75911-4 0  9997
2    11  32.8636 134.9572 1466815 129.2772 244.7377 11.85627181591441
Epoch (UTC): 17 November 2019 11:43:43
Eccentricity: 0.1466815
inclination: 32.8636°
perigee height: 554 km
apogee height: 2937 km
right ascension of ascending node: 134.9572°
argument of perigee: 129.2772°
revolutions per day: 11.85627181
mean anomaly at epoch: 244.7377°
orbit number at epoch: 59144

The dashed part of the orbit path shows where the satellite is in the earth's shadow,  

DLR